#timestamp,LO_Frequency,Hit,StdDev 
1598299215.3,286047001.2,N
1598299235.2,286047000.2,N
1598299255.9,286047000.6,N
1598299275.7,286047000.4,N
1598299295.6,286047000.5,N
1598299315.4,286047000.0,N
1598299335.2,286047002.0,N
1598299355.1,286047001.7,N
1598299356.0,286047001.7,N
1598299375.8,286047001.5,N
1598299395.7,286047003.8,Y
1598299415.5,286047003.1,P
1598299435.3,286047003.3,N
1598299455.2,286047003.4,P
1598299475.0,286047001.4,N
1598299475.9,286047001.4,N
1598299495.8,286047003.1,N
1598299515.6,286047003.0,N
1598299535.4,286047006.0,Y
1598299555.3,286047005.7,P
1598299575.1,286047003.8,N
1598299595.8,286047003.5,N
1598299615.7,286047005.3,Y
1598299635.5,286047003.2,P
1598299655.4,286047003.4,P
1598299675.2,286047003.6,P
1598299695.0,286047005.6,Y
1598299695.9,286047005.6,P
1598299715.8,286047002.4,N
1598299735.6,286047002.5,N
1598299755.5,286047001.5,N
1598299775.3,286047002.4,N
1598299795.1,286046999.7,N
1598299815.9,286047002.6,N
1598299835.7,286046999.9,N
1598299855.6,286047000.2,N
1598299875.4,286046999.8,N
1598299895.2,286047000.2,N
1598299915.1,286047002.4,N
1598299916.0,286047002.4,N
1598299935.8,286047001.4,N
1598299955.6,286047001.4,N
1598299975.5,286047002.6,N
1598299995.3,286047000.7,N
1598300015.2,286046998.6,N
1598300035.9,286046998.4,N
1598300055.7,286046998.3,N
1598300075.6,286046998.3,N
1598300095.4,286046998.9,N
1598300115.2,286047000.8,N
1598300135.1,286047000.9,N
1598300136.0,286047000.9,N
1598300155.8,286047001.0,N
1598300175.7,286047000.5,N
1598300195.5,286046998.2,N
1598300215.3,286047001.1,N
1598300235.2,286047000.4,N
1598300255.0,286047001.1,N
1598300255.9,286047001.1,N
1598300275.8,286047000.6,N
1598300295.6,286047000.9,N
1598300315.4,286046998.6,N
1598300335.3,286047001.2,N
1598300355.1,286047000.7,N
1598300375.8,286046998.2,N
1598300395.7,286046998.5,N
1598300415.5,286047011.9,Y
1598300435.4,286046998.2,P
1598300455.2,286047001.1,N
1598300475.0,286046998.5,N
1598300475.9,286046998.5,N
1598300495.8,286046998.7,N
1598300515.6,286046999.3,N
1598300535.5,286046999.2,N
1598300555.3,286046996.7,Y
1598300575.1,286046999.5,P
1598300595.9,286046999.4,P
1598300615.7,286046996.5,P
1598300635.5,286046999.1,N
1598300655.4,286046999.0,N
1598300675.2,286046998.8,N
1598300695.1,286046998.4,N
1598300696.0,286046998.4,N
1598300715.8,286046996.5,Y
1598300735.6,286046998.9,P
1598300755.5,286046998.7,P
1598300775.3,286046998.7,P
1598300795.2,286046998.7,Y
1598300815.9,286047001.0,P
1598300835.7,286047000.8,N
1598300855.6,286047000.7,N
1598300875.4,286047000.7,N
1598300895.2,286046999.3,N
1598300915.1,286046999.6,N
1598300916.0,286046999.6,N
1598300935.8,286046996.9,Y
1598300955.7,286046994.9,P
1598300975.5,286046996.1,N
1598300995.3,286046995.9,N
1598301015.2,286046994.0,Y
1598301035.0,286046996.7,P
1598301035.9,286046996.7,P
1598301055.8,286046997.2,P
1598301075.6,286046997.7,Y
1598301095.4,286047001.0,P
1598301115.3,286047000.2,N
1598301135.1,286046999.9,N
1598301155.9,286046999.8,N
1598301175.7,286047002.1,N
1598301195.5,286047002.8,N
1598301215.4,286047002.2,N
1598301235.2,286047001.7,N
1598301255.0,286047001.7,N
1598301255.9,286047001.7,N
1598301275.8,286047001.6,N
1598301295.6,286047001.8,N
1598301315.5,286047004.4,N
1598301335.3,286047001.5,N
1598301355.1,286047001.6,N
1598301375.9,286047001.9,N
1598301395.7,286047002.2,N
1598301415.5,286047001.7,N
1598301435.4,286047002.1,N
1598301455.2,286047001.6,N
1598301475.1,286047001.8,N
1598301476.0,286047001.8,N
1598301495.8,286047001.7,N
1598301515.6,286047004.1,Y
1598301535.5,286047002.1,P
1598301555.3,286046999.7,N
1598301575.2,286046999.7,N
1598301595.9,286047000.4,N
1598301615.7,286047000.3,N
1598301635.6,286047002.8,Y
1598301655.4,286047000.8,P
1598301675.2,286046999.9,N
1598301695.1,286047002.7,P
1598301696.0,286047002.7,N
1598301715.8,286047000.1,N
1598301735.7,286046999.8,N
1598301755.5,286047002.6,N
1598301775.3,286047000.1,N
1598301795.2,286047000.0,N
1598301815.0,286046999.9,N
1598301815.9,286046999.9,N
1598301835.7,286047000.5,N
1598301855.6,286047000.7,N
1598301875.4,286047000.5,N
1598301895.3,286046998.2,N
1598301915.1,286046998.2,N
1598301916.0,286046998.2,N
1598301935.8,286046998.3,N
1598301955.7,286046998.7,N
1598301975.5,286046998.4,N
1598301995.3,286046998.4,N
1598302015.2,286046998.3,N
1598302035.0,286046996.5,N
1598302035.9,286046996.5,N
1598302055.8,286046999.4,N
1598302075.6,286046996.6,N
1598302095.4,286046998.7,N
1598302115.3,286046998.8,N
1598302135.1,286046998.9,N
1598302155.8,286046999.3,N
1598302175.7,286046998.4,N
1598302195.5,286046999.3,N
1598302215.4,286046999.4,N
1598302235.2,286046998.3,N
1598302255.0,286046998.4,N
1598302255.9,286046998.4,N
1598302275.8,286046999.3,N
1598302295.6,286046999.3,N
1598302315.4,286046999.0,N
1598302335.3,286046998.9,N
1598302355.1,286046999.5,N
1598302375.9,286046999.0,N
1598302395.7,286046998.9,N
1598302415.5,286046999.4,N
1598302435.4,286046999.1,N
1598302455.2,286046999.5,N
1598302475.1,286046996.6,Y
1598302476.0,286046996.6,P
1598302495.8,286047000.6,N
1598302515.6,286047001.1,N
1598302535.5,286046999.0,N
1598302555.3,286047000.8,N
1598302575.1,286046998.1,N
1598302595.9,286047000.8,N
1598302615.7,286047000.7,N
1598302635.6,286047001.1,N
1598302655.4,286046998.2,N
1598302675.2,286046998.4,N
1598302695.1,286046998.2,N
1598302696.0,286046998.2,N
1598302715.8,286046998.3,N
1598302735.6,286046998.7,N
1598302755.5,286046998.1,N
1598302775.3,286046998.9,N
1598302795.2,286046998.4,N
